Powrót do katalogu

SL-8 R/B

AktywnyPO
NORAD 18710·ROCKET BODY·🇷🇺 Russia

Wystrzelony Dec 23, 1987 z Plesetsk Cosmodrome

Loading…

Następne Przeloty (najbliższe 24 godziny)

TLE

ŚwieżeSource: Space-Track

Epoka: Sep 14, 2026, 22:34 UTC

1 18710U 87106B   26257.94067211  .00000043  00000-0  28515-4 0  9993
2 18710  82.9152 329.5056 0023471  21.2610 157.8735 13.76308020944480

Śledź SL-8 R/B w czasie rzeczywistym z AllMySat

Download on the App Store